Location: Branderode
(51.5659°N, 10.6012°E)
Time: 20:11:03
(UTC+00:00)

Daily predictions for brighter satellites

Satellite Brightness Start Highest point End
(mag) Time Altitude Azimuth Time Altitude Azimuth Time Altitude Azimuth
Cosmos 482 Debris 2.2 15:55:24 10° W 15:57:17 78° N 15:59:05 10° E
CZ-4B R/B 4.2 15:55:10 10° S 15:59:07 48° W 16:03:19 10° NNW
Cosmos 1937 Rocket 4.4 15:54:54 10° NNW 16:00:02 55° WSW 16:05:12 10° S
Cosmos-2242 4.0 15:57:11 10° SSW 16:01:26 51° WNW 16:05:45 10° N
CZ-4 R/B 3.3 16:03:44 10° ENE 16:04:58 11° NE 16:06:12 10° NE
Cosmos 2360 Rocket 2.6 15:59:29 10° SW 16:05:04 63° NW 16:10:41 10° NNE
Cosmos 921 Rocket 4.0 16:02:25 10° SW 16:06:48 50° WNW 16:11:14 10° NNE
Cosmos 1125 Rocket 3.8 16:02:21 10° NNW 16:07:21 45° ENE 16:12:21 10° SE
Cosmos 1633 3.9 16:04:23 10° NNW 16:07:48 43° W 16:11:12 10° SSW
Cosmos 2208 Rocket 4.3 16:04:26 10° S 16:09:32 52° ESE 16:14:44 10° NNE
Cosmos 44 4.4 16:07:18 10° NNW 16:11:51 30° NNE 16:16:33 10° E
Cosmos 2219 Rocket 2.2 16:08:23 10° SSW 16:14:00 69° ESE 16:19:38 10° NE
Cosmos 1500 Rocket 3.5 16:10:55 10° N 16:15:17 64° ENE 16:19:39 10° SSE
Cosmos 2221 2.6 16:12:13 10° S 16:16:30 59° E 16:20:46 10° NNE
Abrixas rocket 3.7 16:14:13 10° WSW 16:16:39 27° SSW 16:19:05 10° SE
CZ-4B R/B 3.1 16:11:58 10° SSE 16:17:17 70° ENE 16:22:34 10° NNW
ERS-2 3.7 16:16:17 11° NE 16:18:37 18° E 16:21:10 10° SE
Cosmos 1980 Rocket 4.3 16:15:37 10° WNW 16:19:02 16° NNW 16:22:28 10° N
Cosmos 1939 Rocket 3.9 16:16:02 10° ESE 16:19:09 24° ENE 16:22:19 10° N
SL-24 R/B - RUBIN 2 4.4 16:12:55 10° NW 16:19:26 77° NE 16:25:16 10° SE
SL-16 R/B 3.7 16:14:28 10° WSW 16:19:28 31° NW 16:24:29 10° NNE
FengYun 1-2 T 4.4 16:15:08 10° SE 16:20:30 52° ENE 16:25:50 10° N
NOAA 12 4.1 16:15:56 10° SSE 16:21:13 69° ENE 16:26:32 10° N
Cosmos 2237 Rocket 3.0 16:17:19 10° SSE 16:22:08 30° ESE 16:26:47 11° NE
ISS -1.7 16:22:02 10° S 16:24:11 16° SE 16:26:06 11° ESE
NOAA 11 4.3 16:20:05 10° SE 16:25:19 52° ENE 16:30:36 10° N
Cosmos 1869 3.5 16:21:19 10° SSW 16:25:21 77° W 16:29:29 10° N
USA 267 3.3 16:20:35 10° ESE 16:27:05 77° NNE 16:33:37 10° WNW
GENESIS II 4.2 16:23:27 10° NW 16:27:26 62° NE 16:31:19 10° SE
CZ-4B R/B 2.6 16:26:55 16° ENE 16:28:13 20° E 16:30:36 10° SE
YAOGAN 1 4.0 16:26:56 10° E 16:29:51 18° ENE 16:32:48 10° NNE
Cosmos 2322 3.9 16:24:23 10° SW 16:30:03 75° WNW 16:35:47 10° NNE
Cosmos 540 Rocket 3.5 16:25:22 10° SSW 16:30:31 83° WNW 16:35:41 10° NNE
Cosmos 2369 Rocket 3.5 16:27:56 10° NNW 16:32:10 21° NNE 16:34:50 15° ENE
Okean-O 3.7 16:31:32 10° ESE 16:35:01 23° ENE 16:38:32 10° N
AQUARIUS 4.1 16:31:00 10° SSE 16:35:30 81° ENE 16:40:02 10° NNW
CRYOSAT 2 4.4 16:30:42 10° NNE 16:35:31 56° E 16:40:20 10° S
COSMO-SKYMED 1 3.8 16:33:45 14° NE 16:36:18 22° E 16:39:43 10° SE
Meteor 2-2 Rocket 4.3 16:30:46 10° S 16:36:44 79° E 16:42:38 10° NNE
Cosmos 1743 Rocket 3.7 16:32:44 10° NNW 16:37:14 80° W 16:41:41 10° S
Cosmos 841 Rocket 3.7 16:33:35 10° SSW 16:38:49 75° WNW 16:44:04 10° NNE
CORIOLIS 4.1 16:34:26 10° SSE 16:39:51 85° ENE 16:45:20 10° NNW
Cosmos 1980 4.1 16:34:35 10° S 16:39:54 43° ESE 16:44:33 13° NE
Envisat 3.8 16:35:47 10° S 16:40:46 55° W 16:45:47 10° NNW
H-2A R/B 3.7 16:39:26 10° S 16:43:38 47° W 16:47:44 10° NNW
H-2A R/B 3.1 16:42:58 10° ESE 16:47:05 24° ENE 16:51:12 10° N
Okean O Rocket 1.8 16:43:37 10° S 16:47:58 76° WSW 16:52:22 10° NNW
Nadezhda 1 Rocket 4.0 16:42:19 10° S 16:48:38 77° E 16:55:03 10° NNE
Sich 1 3.1 16:44:46 10° N 16:49:09 56° ENE 16:53:27 10° SSE
Cosmos 1842 Rocket 4.1 16:48:12 10° SSW 16:52:28 58° WNW 16:56:46 10° N
Cosmos 405 Rocket 3.5 16:49:42 10° NNW 16:53:30 56° W 16:57:21 10° S
Cosmos 2292 4.3 16:51:42 10° S 16:54:47 74° E 16:58:30 10° NNE
Cosmos 1933 4.3 16:52:05 10° SE 16:55:26 25° E 16:55:34 25° E
Cosmos 2297 3.9 16:50:49 10° NNW 16:56:20 49° NE 17:01:51 10° SE
Cosmos 2154 Rocket 4.2 16:50:15 10° NNW 16:56:36 78° W 17:02:55 10° S
Cosmos 1805 Rocket 3.5 16:53:02 10° N 16:57:33 87° ENE 17:02:00 10° S
Cosmos 962 Rocket 4.4 16:54:43 10° N 17:01:05 75° ENE 17:07:20 10° SSE
Cosmos 1814 Rocket 4.4 16:56:25 10° SW 17:01:44 65° WNW 17:07:01 10° NNE
Cosmos 1666 Rocket 3.6 16:59:16 10° N 17:03:34 52° ENE 17:07:52 10° SSE
Cosmos 2341 Rocket 3.9 16:57:43 10° N 17:04:00 71° ENE 17:10:18 10° SSE
Cosmos 1943 Rocket 2.7 17:00:20 10° NNW 17:05:28 37° NE 17:07:56 25° E
SMAP 4.1 17:02:19 10° S 17:06:50 48° W 17:11:22 10° NNW
Helios 1A Rocket 3.3 17:03:46 10° SE 17:07:32 39° ENE 17:11:18 10° N
USA 281 3.1 17:01:29 10° SE 17:07:59 68° ENE 17:14:31 10° NNW
Cosmos 2322 Rocket 4.2 17:04:14 10° W 17:08:30 21° NW 17:12:47 10° NNE
SL-16 R/B 3.1 17:04:38 10° SSE 17:09:17 27° ESE 17:09:55 26° E
Cosmos 1151 Rocket 3.8 17:06:36 10° SSE 17:09:51 29° ESE 17:09:51 29° ESE
MOS 1 Rocket 4.3 17:14:13 30° E 17:14:49 30° E 17:19:34 10° SSE
ARGOS 3.8 17:15:45 30° ENE 17:16:26 31° ENE 17:21:08 10° N
Cosmos 2285 Rocket 4.0 17:13:14 10° NNW 17:19:38 62° ENE 17:25:56 10° SE
NOSS 0 Rocket 3.9 17:13:33 10° SSW 17:19:48 89° ESE 17:24:41 18° NNE
Feng Yun 1-1 Rocket 4.4 17:14:18 10° SSE 17:20:07 83° WSW 17:25:50 10° NNW
CREW DRAGON DEMO-1 DEB 2.9 17:17:14 10° W 17:20:12 62° SSW 17:20:29 58° SSE
Cosmos 1606 2.6 17:16:51 10° S 17:20:43 76° E 17:23:04 23° NNE
Cosmos 389 Rocket 2.2 17:17:23 10° S 17:20:47 67° E 17:21:16 57° NE
Cosmos 836 Rocket 4.5 17:16:30 10° SSW 17:21:44 67° ESE 17:25:00 24° NNE
CZ-2C R/B 3.0 17:16:44 10° SSE 17:21:45 56° ENE 17:26:33 10° N
Cosmos 2333 Rocket 3.2 17:17:42 10° WSW 17:23:07 43° NW 17:28:10 12° NNE
H-2A R/B 3.3 17:19:39 10° N 17:23:32 39° WNW 17:27:26 10° SW
SKYMED 2 3.5 17:22:23 26° NNE 17:24:41 61° ESE 17:28:59 10° S
Meteor 1-20 Rocket 4.2 17:19:24 10° N 17:25:17 74° ENE 17:31:08 10° SSE
Cosmos 1867 4.1 17:21:48 10° S 17:26:46 38° ESE 17:27:33 36° E
COSMOS 2428 3.6 17:22:45 10° SW 17:28:19 48° NW 17:33:12 13° NNE
SL-8 Rocket 3.9 17:25:42 10° N 17:31:57 85° E 17:38:14 10° S
Cosmos 864 Rocket 4.4 17:26:05 10° N 17:32:26 70° ENE 17:38:42 10° SSE
Cosmos 2278 Rocket 3.9 17:29:15 10° NW 17:34:18 34° WSW 17:39:21 10° S
Cosmos 1633 Rocket 2.9 17:30:51 10° N 17:35:16 86° E 17:39:39 10° S
USA 215 3.2 17:32:16 33° ENE 17:35:27 71° SE 17:41:59 10° SW
EO 1 Delta rocket 4.2 17:32:12 11° NNE 17:37:05 63° E 17:43:14 10° S
Cosmos 2181 Rocket 3.9 17:32:23 10° S 17:38:47 72° E 17:45:09 10° NNE
CZ-4 R/B 1.1 17:37:52 39° SSE 17:39:16 78° ENE 17:43:17 10° NNW
SAR-Lupe-4 3.5 17:40:59 76° S 17:40:59 76° S 17:44:19 10° SSW
Cosmos 1959 Rocket 4.4 17:35:09 10° N 17:41:33 83° E 17:47:55 10° SSE
Meteor 1-25 Rocket 4.1 17:35:57 10° NNW 17:41:34 89° W 17:47:14 10° S
Cosmos 1821 Rocket 4.2 17:39:25 10° N 17:45:18 43° ENE 17:45:18 43° ENE
CZ-2D R/B 3.7 17:43:11 10° S 17:46:57 61° W 17:50:46 10° NNW
Cosmos 1241 Rocket 4.5 17:41:59 10° NW 17:48:38 81° NE 17:51:53 33° SE
Cosmos 2360 Rocket 4.3 17:46:16 10° WNW 17:50:14 19° NNW 17:54:11 10° NNE
ERS-2 3.1 17:50:53 28° NNW 17:52:23 45° WNW 17:55:54 10° SW
Cosmos 44 3.4 17:48:25 10° NW 17:53:40 85° SW 17:55:25 44° SE
Cosmos 1939 Rocket 4.2 17:50:19 10° SSW 17:53:56 38° W 17:57:35 10° NNW
CSL-04 Debris 4.1 17:51:54 29° SSE 17:54:47 71° ENE 18:00:16 10° NNW
DEBRIS 3.9 17:40:52 10° W 17:55:07 74° S 17:56:22 51° ESE
SJ-11-01 4.1 17:57:31 73° NE 17:57:31 73° NE 18:02:06 10° N
SL-08 R/B 4.3 17:51:23 10° N 17:57:35 70° ENE 18:03:41 10° SSE
Cosmos 2219 Rocket 3.8 17:53:31 10° WSW 17:58:27 30° NW 18:02:22 15° NNE
CZ-4B R/B 3.2 18:00:04 25° NW 18:00:29 26° WNW 18:03:05 10° SW
ISS -2.0 17:57:10 10° WSW 17:59:04 30° SW 17:59:04 30° SW
YAOGAN 1 2.8 18:03:51 37° S 18:05:30 69° WSW 18:09:51 10° NNW
Cosmos 2237 Rocket 2.7 18:00:23 10° SW 18:05:55 57° NW 18:08:38 30° NNE
Cosmos 1470 Rocket 4.2 18:05:17 10° NNW 18:08:28 47° NNW 18:08:28 47° NNW
USA 267 4.0 18:05:49 19° SSE 18:10:24 49° SW 18:16:42 10° WNW
Okean-O 3.4 18:06:54 10° S 18:11:13 52° W 18:15:35 10° NNW
COSMO-SKYMED 1 3.4 18:10:59 30° NNW 18:12:43 49° WNW 18:16:54 10° SW
Cosmos 2218 Rocket 4.5 18:09:34 10° NNW 18:15:37 58° W 18:21:36 10° S
Cosmos 2369 Rocket 2.3 18:11:33 10° NNW 18:16:39 64° NNE 18:16:39 64° NNE
CSL-04 Rocket 3.6 18:18:45 57° S 18:19:52 81° WSW 18:25:14 10° NNW
H-2A R/B 2.3 18:23:36 31° S 18:26:07 67° WSW 18:31:20 10° NNW
Cosmos 1943 Rocket 2.8 18:44:04 10° NW 18:49:24 49° WSW 18:49:30 49° WSW
SL-16 R/B 2.8 18:47:22 10° SW 18:51:51 52° WSW 18:51:51 52° WSW
MOS 1 Rocket 4.4 18:53:31 51° W 18:53:31 51° W 18:58:30 10° SW
ARGOS 4.0 18:57:16 48° WNW 18:57:16 48° WNW 19:01:47 10° NNW
Cosmos 2333 Rocket 4.5 19:05:42 10° WNW 19:08:58 15° NNW 19:10:10 14° N
CZ-4 R/B 4.5 19:13:54 11° WSW 19:14:52 12° W 19:16:30 10° WNW
USA 215 3.7 19:19:37 55° WNW 19:19:37 55° WNW 19:24:56 10° W
